| time (UTC) | temp F | wind direction | speed MPH | gust MPH | rain 1hr in | rain 24hr in | rain mn in | humidity % | barometer mb |
| 20260505011011 | 77 | 235 | 1.0 | 5.0 | 0.00 | 0.00 | 0.00 | 48 | 1010.0 |
| 20260505010519 | 77 | 22 | 1.0 | 5.0 | 0.00 | 0.00 | 0.00 | 47 | 1010.0 |
| 20260505010035 | 77 | 259 | 1.0 | 3.0 | 0.00 | 0.00 | 0.00 | 47 | 1009.9 |
| 20260505005514 | 77 | 186 | 1.0 | 3.0 | 0.00 | 0.00 | 0.00 | 47 | 1010.0 |
| 20260505005014 | 78 | 205 | 0.0 | 3.0 | 0.00 | 0.00 | 0.00 | 47 | 1010.0 |
| 20260505004531 | 78 | 220 | 1.0 | 3.0 | 0.00 | 0.00 | 0.00 | 47 | 1010.0 |
| 20260505004011 | 78 | 192 | 1.0 | 5.0 | 0.00 | 0.00 | 0.00 | 47 | 1009.9 |
| 20260505003516 | 78 | 229 | 1.0 | 5.0 | 0.00 | 0.00 | 0.00 | 46 | 1009.9 |
| 20260505003034 | 78 | 229 | 1.0 | 4.0 | 0.00 | 0.00 | 0.00 | 47 | 1009.9 |
| 20260505002515 | 78 | 24 | 1.0 | 4.0 | 0.00 | 0.00 | 0.00 | 48 | 1009.9 |
| 20260505002012 | 78 | 14 | 1.0 | 4.0 | 0.00 | 0.00 | 0.00 | 48 | 1009.8 |
| 20260505001532 | 78 | 223 | 2.0 | 4.0 | 0.00 | 0.00 | 0.00 | 46 | 1009.7 |
| 20260505001014 | 79 | 272 | 1.0 | 4.0 | 0.00 | 0.00 | 0.00 | 46 | 1009.7 |
| 20260505000514 | 79 | 144 | 1.0 | 7.0 | 0.00 | 0.00 | 0.00 | 46 | 1009.7 |
| 20260505000040 | 79 | 185 | 1.0 | 7.0 | 0.00 | 0.00 | 0.00 | 46 | 1009.7 |
| 20260504235514 | 79 | 194 | 2.0 | 7.0 | 0.00 | 0.00 | 0.00 | 46 | 1009.8 |
| 20260504235014 | 79 | 167 | 1.0 | 4.0 | 0.00 | 0.00 | 0.00 | 48 | 1009.9 |
| 20260504234535 | 80 | 173 | 1.0 | 5.0 | 0.00 | 0.00 | 0.00 | 46 | 1010.0 |
| 20260504234014 | 80 | 294 | 1.0 | 7.0 | 0.00 | 0.00 | 0.00 | 46 | 1010.0 |
| 20260504233514 | 80 | 327 | 1.0 | 7.0 | 0.00 | 0.00 | 0.00 | 45 | 1010.0 |
| 20260504233033 | 80 | 237 | 2.0 | 7.0 | 0.00 | 0.00 | 0.00 | 44 | 1010.0 |
| 20260504232514 | 81 | 347 | 1.0 | 4.0 | 0.00 | 0.00 | 0.00 | 45 | 1009.8 |
| 20260504232015 | 81 | 209 | 1.0 | 6.0 | 0.00 | 0.00 | 0.00 | 45 | 1010.0 |
| 20260504231529 | 81 | 246 | 2.0 | 6.0 | 0.00 | 0.00 | 0.00 | 47 | 1009.9 |
| 20260504231012 | 81 | 251 | 2.0 | 5.0 | 0.00 | 0.00 | 0.00 | 45 | 1009.9 |
| 20260504230514 | 81 | 246 | 1.0 | 5.0 | 0.00 | 0.00 | 0.00 | 47 | 1010.0 |
| 20260504230032 | 81 | 200 | 0.0 | 5.0 | 0.00 | 0.00 | 0.00 | 45 | 1010.0 |
| 20260504225515 | 81 | 332 | 2.0 | 4.0 | 0.00 | 0.00 | 0.00 | 47 | 1010.0 |
| 20260504225017 | 81 | 307 | 0.0 | 5.0 | 0.00 | 0.00 | 0.00 | 50 | 1010.1 |
| 20260504224533 | 80 | 311 | 1.0 | 5.0 | 0.00 | 0.00 | 0.00 | 45 | 1010.1 |
| 20260504224014 | 81 | 253 | 3.0 | 5.0 | 0.00 | 0.00 | 0.00 | 45 | 1010.1 |
| 20260504223514 | 81 | 262 | 1.0 | 5.0 | 0.00 | 0.00 | 0.00 | 47 | 1010.1 |
| 20260504223030 | 81 | 188 | 2.0 | 5.0 | 0.00 | 0.00 | 0.00 | 45 | 1010.0 |
| 20260504222513 | 81 | 198 | 1.0 | 4.0 | 0.00 | 0.00 | 0.00 | 46 | 1010.2 |
| 20260504222019 | 81 | 0 | 1.0 | 4.0 | 0.00 | 0.00 | 0.00 | 46 | 1010.1 |
| 20260504221532 | 81 | 224 | 1.0 | 3.0 | 0.00 | 0.00 | 0.00 | 45 | 1010.1 |
| 20260504221015 | 81 | 153 | 1.0 | 3.0 | 0.00 | 0.00 | 0.00 | 47 | 1010.2 |
| 20260504220515 | 81 | 295 | 0.0 | 7.0 | 0.00 | 0.00 | 0.00 | 50 | 1010.1 |
| 20260504220040 | 80 | 171 | 0.0 | 7.0 | 0.00 | 0.00 | 0.00 | 51 | 1010.3 |
| 20260504215515 | 80 | 169 | 2.0 | 7.0 | 0.00 | 0.00 | 0.00 | 49 | 1010.3 |
| 20260504215015 | 80 | 0 | 0.0 | 2.0 | 0.00 | 0.00 | 0.00 | 51 | 1010.3 |
| 20260504214540 | 80 | 180 | 0.0 | 2.0 | 0.00 | 0.00 | 0.00 | 51 | 1010.4 |
| 20260504214018 | 79 | 224 | 0.0 | 3.0 | 0.00 | 0.00 | 0.00 | 52 | 1010.6 |
| 20260504213514 | 79 | 340 | 0.0 | 6.0 | 0.00 | 0.00 | 0.00 | 53 | 1010.6 |
| 20260504213034 | 79 | 247 | 1.0 | 7.0 | 0.00 | 0.00 | 0.00 | 51 | 1010.6 |
| 20260504212517 | 79 | 211 | 3.0 | 7.0 | 0.00 | 0.00 | 0.00 | 52 | 1010.6 |
| 20260504212017 | 78 | 0 | 0.0 | 4.0 | 0.00 | 0.00 | 0.00 | 54 | 1010.6 |
| 20260504211535 | 78 | 101 | 1.0 | 4.0 | 0.00 | 0.00 | 0.00 | 54 | 1010.7 |
| 20260504211014 | 78 | 53 | 0.0 | 2.0 | 0.00 | 0.00 | 0.00 | 53 | 1010.6 |
| 20260504210513 | 78 | 85 | 1.0 | 6.0 | 0.00 | 0.00 | 0.00 | 53 | 1010.7 |
| 20260504210030 | 78 | 248 | 1.0 | 6.0 | 0.00 | 0.00 | 0.00 | 55 | 1010.7 |
| 20260504205515 | 78 | 236 | 1.0 | 6.0 | 0.00 | 0.00 | 0.00 | 54 | 1010.7 |
| 20260504205014 | 78 | 249 | 2.0 | 5.0 | 0.00 | 0.00 | 0.00 | 56 | 1010.6 |
| 20260504204530 | 77 | 74 | 1.0 | 5.0 | 0.00 | 0.00 | 0.00 | 56 | 1010.8 |
| 20260504204014 | 77 | 250 | 1.0 | 3.0 | 0.00 | 0.00 | 0.00 | 56 | 1010.8 |
| 20260504203518 | 77 | 5 | 0.0 | 5.0 | 0.00 | 0.00 | 0.00 | 56 | 1010.9 |
| 20260504203035 | 76 | 242 | 2.0 | 8.0 | 0.00 | 0.00 | 0.00 | 56 | 1011.0 |
| 20260504202514 | 76 | 244 | 1.0 | 8.0 | 0.00 | 0.00 | 0.00 | 55 | 1011.0 |
| 20260504202013 | 76 | 250 | 2.0 | 8.0 | 0.00 | 0.00 | 0.00 | 57 | 1011.0 |
| 20260504201532 | 76 | 0 | 0.0 | 4.0 | 0.00 | 0.00 | 0.00 | 56 | 1011.0 |
| 20260504201011 | 76 | 257 | 0.0 | 2.0 | 0.00 | 0.00 | 0.00 | 58 | 1011.2 |
| 20260504200514 | 75 | 214 | 0.0 | 3.0 | 0.00 | 0.00 | 0.00 | 58 | 1011.2 |
| 20260504200032 | 75 | 0 | 0.0 | 3.0 | 0.00 | 0.00 | 0.00 | 57 | 1011.3 |
| 20260504195514 | 74 | 232 | 1.0 | 3.0 | 0.00 | 0.00 | 0.00 | 58 | 1011.2 |
| 20260504195016 | 74 | 0 | 0.0 | 2.0 | 0.00 | 0.00 | 0.00 | 58 | 1011.3 |
| 20260504194532 | 73 | 197 | 0.0 | 7.0 | 0.00 | 0.00 | 0.00 | 61 | 1011.2 |
| 20260504194015 | 73 | 238 | 0.0 | 8.0 | 0.00 | 0.00 | 0.00 | 60 | 1011.2 |
| 20260504193515 | 73 | 232 | 3.0 | 8.0 | 0.00 | 0.00 | 0.00 | 59 | 1011.2 |
| 20260504193034 | 73 | 279 | 2.0 | 5.0 | 0.00 | 0.00 | 0.00 | 60 | 1011.2 |
| 20260504192515 | 73 | 236 | 1.0 | 4.0 | 0.00 | 0.00 | 0.00 | 62 | 1011.3 |
| 20260504192014 | 72 | 0 | 1.0 | 7.0 | 0.00 | 0.00 | 0.00 | 62 | 1011.4 |
| 20260504191531 | 72 | 38 | 1.0 | 7.0 | 0.00 | 0.00 | 0.00 | 62 | 1011.4 |
| 20260504191015 | 72 | 205 | 1.0 | 3.0 | 0.00 | 0.00 | 0.00 | 63 | 1011.5 |
| 20260504190514 | 71 | 90 | 1.0 | 3.0 | 0.00 | 0.00 | 0.00 | 63 | 1011.5 |
| 20260504190032 | 71 | 166 | 1.0 | 7.0 | 0.00 | 0.00 | 0.00 | 62 | 1011.6 |
| 20260504185515 | 71 | 189 | 1.0 | 8.0 | 0.00 | 0.00 | 0.00 | 62 | 1011.6 |
| 20260504185018 | 71 | 238 | 1.0 | 8.0 | 0.00 | 0.00 | 0.00 | 62 | 1011.6 |
| 20260504184534 | 71 | 187 | 1.0 | 5.0 | 0.00 | 0.00 | 0.00 | 63 | 1011.7 |
| 20260504184015 | 70 | 241 | 1.0 | 8.0 | 0.00 | 0.00 | 0.00 | 64 | 1011.8 |
| 20260504183516 | 70 | 252 | 1.0 | 8.0 | 0.00 | 0.00 | 0.00 | 65 | 1011.6 |
| 20260504183032 | 69 | 257 | 1.0 | 5.0 | 0.00 | 0.00 | 0.00 | 65 | 1011.6 |
| 20260504182515 | 69 | 216 | 2.0 | 5.0 | 0.00 | 0.00 | 0.00 | 64 | 1011.7 |
| 20260504182016 | 70 | 213 | 1.0 | 3.0 | 0.00 | 0.00 | 0.00 | 64 | 1011.8 |
| 20260504181536 | 69 | 0 | 0.0 | 4.0 | 0.00 | 0.00 | 0.00 | 66 | 1011.8 |
| 20260504181015 | 68 | 50 | 1.0 | 5.0 | 0.00 | 0.00 | 0.00 | 66 | 1011.9 |
| 20260504180514 | 68 | 242 | 2.0 | 5.0 | 0.00 | 0.00 | 0.00 | 65 | 1011.8 |
| 20260504180032 | 68 | 231 | 1.0 | 4.0 | 0.00 | 0.00 | 0.00 | 67 | 1011.8 |
| 20260504175514 | 68 | 227 | 2.0 | 4.0 | 0.00 | 0.00 | 0.00 | 66 | 1011.7 |
| 20260504175015 | 67 | 61 | 0.0 | 7.0 | 0.00 | 0.00 | 0.00 | 68 | 1011.7 |
| 20260504174536 | 66 | 19 | 0.0 | 7.0 | 0.00 | 0.00 | 0.00 | 69 | 1011.7 |
| 20260504174015 | 66 | 229 | 2.0 | 7.0 | 0.00 | 0.00 | 0.00 | 69 | 1011.8 |
| 20260504173515 | 65 | 229 | 1.0 | 4.0 | 0.00 | 0.00 | 0.00 | 70 | 1011.8 |
| 20260504173033 | 65 | 0 | 1.0 | 4.0 | 0.00 | 0.00 | 0.00 | 70 | 1011.7 |
| 20260504172514 | 64 | 0 | 1.0 | 4.0 | 0.00 | 0.00 | 0.00 | 71 | 1011.8 |
| 20260504172014 | 64 | 91 | 0.0 | 3.0 | 0.00 | 0.00 | 0.00 | 72 | 1011.8 |
| 20260504171536 | 63 | 78 | 0.0 | 6.0 | 0.00 | 0.00 | 0.00 | 73 | 1011.8 |
| 20260504171014 | 63 | 254 | 1.0 | 7.0 | 0.00 | 0.00 | 0.00 | 72 | 1011.9 |
| 20260504170513 | 63 | 213 | 2.0 | 7.0 | 0.00 | 0.00 | 0.00 | 73 | 1011.7 |
| 20260504151017 | 52 | 286 | 0.0 | 2.0 | 0.00 | 0.00 | 0.00 | 90 | 1011.1 |
| 20260504150514 | 51 | 0 | 0.0 | 1.0 | 0.00 | 0.00 | 0.00 | 90 | 1011.1 |
| 20260504141014 | 49 | 0 | 0.0 | 0.0 | 0.00 | 0.00 | 0.00 | 89 | 1010.7 |
| 20260504140514 | 48 | 0 | 0.0 | 0.0 | 0.00 | 0.00 | 0.00 | 88 | 1010.7 |
| 20260504130515 | 48 | 0 | 0.0 | 0.0 | 0.00 | 0.00 | 0.00 | 87 | 1010.0 |
| 20260504110514 | 51 | 0 | 0.0 | 0.0 | 0.00 | 0.00 | 0.00 | 86 | 1009.5 |
| 20260504100517 | 52 | 0 | 0.0 | 0.0 | 0.00 | 0.00 | 0.00 | 85 | 1009.5 |
| 20260504081536 | 56 | 0 | 0.0 | 0.0 | 0.00 | 0.00 | 0.00 | 80 | 1009.5 |
| 20260504081015 | 56 | 0 | 0.0 | 0.0 | 0.00 | 0.00 | 0.00 | 80 | 1009.5 |
| 20260504080515 | 56 | 0 | 0.0 | 0.0 | 0.00 | 0.00 | 0.00 | 79 | 1009.5 |
| 20260504050515 | 64 | 0 | 0.0 | 0.0 | 0.00 | 0.00 | 0.00 | 68 | 1009.5 |
| 20260504045515 | 65 | 0 | 0.0 | 0.0 | 0.00 | 0.00 | 0.00 | 66 | 1009.4 |
| 20260504045015 | 65 | 0 | 0.0 | 0.0 | 0.00 | 0.00 | 0.00 | 65 | 1009.5 |
| 20260504044531 | 66 | 0 | 0.0 | 0.0 | 0.00 | 0.00 | 0.00 | 64 | 1009.5 |
| 20260504044015 | 66 | 0 | 0.0 | 0.0 | 0.00 | 0.00 | 0.00 | 64 | 1009.4 |
| 20260504043514 | 67 | 0 | 0.0 | 0.0 | 0.00 | 0.00 | 0.00 | 63 | 1009.4 |
| 20260504043032 | 67 | 0 | 0.0 | 0.0 | 0.00 | 0.00 | 0.00 | 62 | 1009.3 |
| 20260504042517 | 68 | 0 | 0.0 | 0.0 | 0.00 | 0.00 | 0.00 | 61 | 1009.3 |
| 20260504042015 | 68 | 0 | 0.0 | 0.0 | 0.00 | 0.00 | 0.00 | 60 | 1009.3 |
| 20260504041531 | 68 | 0 | 0.0 | 0.0 | 0.00 | 0.00 | 0.00 | 60 | 1009.3 |
| 20260504041015 | 69 | 0 | 0.0 | 0.0 | 0.00 | 0.00 | 0.00 | 60 | 1009.2 |
| 20260504040515 | 69 | 0 | 0.0 | 0.0 | 0.00 | 0.00 | 0.00 | 60 | 1009.2 |
| 20260504040031 | 70 | 0 | 0.0 | 0.0 | 0.00 | 0.00 | 0.00 | 58 | 1009.1 |
| 20260504035520 | 70 | 0 | 0.0 | 0.0 | 0.00 | 0.00 | 0.00 | 57 | 1009.1 |
| 20260504035014 | 71 | 0 | 0.0 | 0.0 | 0.00 | 0.00 | 0.00 | 56 | 1008.9 |
| 20260504034535 | 71 | 0 | 0.0 | 0.0 | 0.00 | 0.00 | 0.00 | 56 | 1009.0 |
| 20260504034014 | 72 | 0 | 0.0 | 0.0 | 0.00 | 0.00 | 0.00 | 58 | 1008.9 |
| 20260504033514 | 72 | 0 | 0.0 | 0.0 | 0.00 | 0.00 | 0.00 | 57 | 1008.9 |
| 20260504033047 | 73 | 0 | 0.0 | 0.0 | 0.00 | 0.00 | 0.00 | 56 | 1009.0 |
| 20260504032514 | 73 | 0 | 0.0 | 0.0 | 0.00 | 0.00 | 0.00 | 53 | 1008.8 |
| 20260504032014 | 73 | 0 | 0.0 | 0.0 | 0.00 | 0.00 | 0.00 | 53 | 1008.8 |
| 20260504031532 | 74 | 0 | 0.0 | 0.0 | 0.00 | 0.00 | 0.00 | 52 | 1008.7 |
| 20260504031015 | 74 | 0 | 0.0 | 0.0 | 0.00 | 0.00 | 0.00 | 51 | 1008.7 |
| 20260504030515 | 75 | 0 | 0.0 | 0.0 | 0.00 | 0.00 | 0.00 | 51 | 1008.7 |
| 20260504030034 | 75 | 0 | 0.0 | 0.0 | 0.00 | 0.00 | 0.00 | 50 | 1008.7 |
| 20260504025516 | 75 | 0 | 0.0 | 0.0 | 0.00 | 0.00 | 0.00 | 52 | 1008.7 |
| 20260504025019 | 76 | 0 | 0.0 | 0.0 | 0.00 | 0.00 | 0.00 | 50 | 1008.7 |
| 20260504024543 | 76 | 0 | 0.0 | 2.0 | 0.00 | 0.00 | 0.00 | 47 | 1008.7 |
| 20260504024017 | 77 | 0 | 0.0 | 2.0 | 0.00 | 0.00 | 0.00 | 47 | 1008.7 |
| 20260504023515 | 77 | 0 | 0.0 | 2.0 | 0.00 | 0.00 | 0.00 | 46 | 1008.7 |
| 20260504023031 | 78 | 0 | 0.0 | 2.0 | 0.00 | 0.00 | 0.00 | 48 | 1008.6 |
| 20260504022516 | 78 | 0 | 0.0 | 2.0 | 0.00 | 0.00 | 0.00 | 48 | 1008.6 |
| 20260504022017 | 79 | 0 | 0.0 | 3.0 | 0.00 | 0.00 | 0.00 | 46 | 1008.6 |
| 20260504021532 | 79 | 0 | 0.0 | 3.0 | 0.00 | 0.00 | 0.00 | 47 | 1008.6 |
| 20260504021015 | 80 | 0 | 0.0 | 0.0 | 0.00 | 0.00 | 0.00 | 47 | 1008.6 |
| 20260504020515 | 80 | 0 | 0.0 | 0.0 | 0.00 | 0.00 | 0.00 | 48 | 1008.7 |
| 20260504020034 | 81 | 0 | 0.0 | 0.0 | 0.00 | 0.00 | 0.00 | 45 | 1008.7 |
| 20260504015515 | 82 | 0 | 0.0 | 4.0 | 0.00 | 0.00 | 0.00 | 45 | 1008.7 |
| 20260504015016 | 82 | 0 | 0.0 | 4.0 | 0.00 | 0.00 | 0.00 | 45 | 1008.6 |
| 20260504014534 | 83 | 0 | 0.0 | 2.0 | 0.00 | 0.00 | 0.00 | 45 | 1008.7 |
| 20260504014018 | 83 | 0 | 0.0 | 2.0 | 0.00 | 0.00 | 0.00 | 44 | 1008.6 |
| 20260504013515 | 84 | 0 | 0.0 | 2.0 | 0.00 | 0.00 | 0.00 | 45 | 1008.6 |
| 20260504013033 | 84 | 28 | 0.0 | 2.0 | 0.00 | 0.00 | 0.00 | 42 | 1008.7 |
| 20260504012515 | 85 | 0 | 0.0 | 2.0 | 0.00 | 0.00 | 0.00 | 42 | 1008.7 |
| 20260504012015 | 85 | 0 | 0.0 | 2.0 | 0.00 | 0.00 | 0.00 | 39 | 1008.7 |
| 20260504011532 | 85 | 0 | 0.0 | 2.0 | 0.00 | 0.00 | 0.00 | 39 | 1008.8 |